Weather History for Hays, KS

Change the Weather History Date:

Saturday, June 7, 2014

  Actual Average Record
Temperature  
Mean Temperature 65 °F -  
Max Temperature 73 °F 81 °F 98 °F (2011)
Min Temperature 57 °F 56 °F 50 °F (2003)
Growing Degree Days 15 (Base 50)    
Moisture  
Dew Point 56 °F    
Average Humidity 73    
Maximum Humidity 88    
Minimum Humidity 57    
Precipitation  
Precipitation 0.00 in - - ()
Sea Level Pressure  
Sea Level Pressure 29.99 in    
Wind  
Wind Speed 11 mph (North)    
Max Wind Speed 26 mph    
Max Gust Speed 32 mph    
Visibility 10 miles    
Events      
Averages and records for this station are not official NWS values.
T = Trace of Precipitation, MM = Missing Value Source: NWS Daily Summary

Daily Weather History Graph

Daily Weather History Graph

Search for Another Location

Airport:

Trip Planner

Search our weather history database for the weather conditions in past years. The results will help you decide how hot, cold, wet, or windy it might be!

Date:

Astronomy

Jun. 07, 2014 Rise Set
Actual Time 6:12 AM CDT 9:00 PM CDT
Civil Twilight 5:40 AM CDT 9:31 PM CDT
Nautical Twilight 5:00 AM CDT 10:11 PM CDT
Astronomical Twilight 4:15 AM CDT 10:57 PM CDT
Moon 3:22 PM CDT (6/7) 2:31 AM CDT (6/7)
Length of Visible Light 15h 51m
Length of Day
14h 48m
Waxing Gibbous, 68% of the Moon is Illuminated
Jun 7
Waxing Gibbous
Jun 12
Full
Jun 19
Last Quarter
Jun 27
New
Jul 5
First Quarter

Hourly Weather History & Observations

Time (CDT) Temp. Dew Point Humidity Pressure Visibility Wind Dir Wind Speed Gust Speed Precip Events Conditions
12:15 AM 62.6 °F 57.2 °F 82% 29.87 in 10.0 mi North 6.9 mph - N/A   Clear
12:35 AM 62.6 °F 57.2 °F 82% 29.84 in 10.0 mi ENE 6.9 mph - N/A   Clear
12:55 AM 62.6 °F 57.2 °F 82% 29.87 in 10.0 mi Calm Calm - N/A   Clear
1:15 AM 62.6 °F 57.2 °F 82% 29.87 in 10.0 mi WNW 16.1 mph 20.7 mph N/A   Clear
1:35 AM 60.8 °F 57.2 °F 88% 29.87 in 10.0 mi NW 9.2 mph - N/A   Scattered Clouds
1:55 AM 60.8 °F 57.2 °F 88% 29.88 in 10.0 mi WNW 8.1 mph - N/A   Partly Cloudy
2:15 AM 60.8 °F 57.2 °F 88% 29.86 in 10.0 mi WNW 6.9 mph - N/A   Clear
2:35 AM 60.8 °F 57.2 °F 88% 29.86 in 10.0 mi WNW 6.9 mph - N/A   Scattered Clouds
2:55 AM 60.8 °F 55.4 °F 82% 29.87 in 10.0 mi WNW 6.9 mph - N/A   Mostly Cloudy
3:15 AM 60.8 °F 55.4 °F 82% 29.88 in 10.0 mi NW 4.6 mph - N/A   Mostly Cloudy
3:35 AM 60.8 °F 57.2 °F 88% 29.89 in 10.0 mi NW 6.9 mph - N/A   Mostly Cloudy
3:55 AM 60.8 °F 57.2 °F 88% 29.89 in 10.0 mi NW 10.4 mph - N/A   Overcast
4:15 AM 60.8 °F 57.2 °F 88% 29.89 in 10.0 mi WNW 9.2 mph - N/A   Mostly Cloudy
4:35 AM 60.8 °F 57.2 °F 88% 29.89 in 10.0 mi WNW 8.1 mph - N/A   Overcast
4:55 AM 60.8 °F 57.2 °F 88% 29.90 in 10.0 mi NW 10.4 mph - N/A   Overcast
5:15 AM 60.8 °F 57.2 °F 88% 29.90 in 7.0 mi WNW 11.5 mph - N/A   Overcast
5:35 AM 60.8 °F 57.2 °F 88% 29.90 in 9.0 mi WNW 15.0 mph 20.7 mph N/A   Overcast
5:55 AM 60.8 °F 57.2 °F 88% 29.90 in 4.0 mi NW 17.3 mph 24.2 mph N/A   Overcast
6:15 AM 60.8 °F 57.2 °F 88% 29.91 in 10.0 mi NW 15.0 mph - N/A   Overcast
6:35 AM 60.8 °F 57.2 °F 88% 29.91 in 10.0 mi NW 17.3 mph 21.9 mph N/A   Overcast
7:15 AM 62.6 °F 57.2 °F 82% 29.93 in 10.0 mi NNW 17.3 mph - N/A   Overcast
8:15 AM 62.6 °F 57.2 °F 82% 29.97 in 10.0 mi North 19.6 mph - N/A   Overcast
8:35 AM 59.0 °F 53.6 °F 82% 29.99 in 10.0 mi NNW 26.5 mph 31.1 mph N/A   Overcast
8:55 AM 57.2 °F 51.8 °F 82% 30.00 in 10.0 mi North 24.2 mph 29.9 mph N/A   Overcast
9:15 AM 57.2 °F 53.6 °F 88% 30.02 in 10.0 mi NNW 18.4 mph 27.6 mph N/A   Overcast
9:35 AM 59.0 °F 53.6 °F 82% 30.01 in 10.0 mi NNW 19.6 mph 27.6 mph N/A   Overcast
9:55 AM 60.8 °F 53.6 °F 77% 30.02 in 10.0 mi North 20.7 mph - N/A   Overcast
10:15 AM 62.6 °F 55.4 °F 77% 30.02 in 10.0 mi North 23.0 mph - N/A   Mostly Cloudy
10:35 AM 64.4 °F 55.4 °F 73% 30.01 in 10.0 mi North 25.3 mph 32.2 mph N/A   Partly Cloudy
10:55 AM 64.4 °F 57.2 °F 77% 30.03 in 10.0 mi North 16.1 mph 20.7 mph N/A   Clear
11:15 AM 66.2 °F 57.2 °F 73% 30.01 in 10.0 mi NE 15.0 mph - N/A   Clear
11:35 AM 68.0 °F 57.2 °F 68% 30.00 in 10.0 mi NE 13.8 mph - N/A   Clear
11:55 AM 69.8 °F 59.0 °F 68% 30.02 in 10.0 mi NNE 10.4 mph - N/A   Clear
12:15 PM 71.6 °F 59.0 °F 64% 30.03 in 10.0 mi North 10.4 mph - N/A   Partly Cloudy
12:35 PM 71.6 °F 59.0 °F 64% 30.03 in 10.0 mi NNE 15.0 mph 18.4 mph N/A   Scattered Clouds
12:55 PM 71.6 °F 57.2 °F 60% 30.03 in 10.0 mi North 12.7 mph - N/A   Mostly Cloudy
1:15 PM 71.6 °F 57.2 °F 60% 30.03 in 10.0 mi North 13.8 mph 18.4 mph N/A   Overcast
1:35 PM 71.6 °F 57.2 °F 60% 30.03 in 10.0 mi NNE 16.1 mph 19.6 mph N/A   Overcast
1:55 PM 71.6 °F 57.2 °F 60% 30.03 in 10.0 mi North 13.8 mph - N/A   Overcast
2:15 PM 71.6 °F 57.2 °F 60% 30.02 in 10.0 mi North 13.8 mph - N/A   Overcast
2:35 PM 73.4 °F 59.0 °F 61% 30.01 in 10.0 mi NNE 12.7 mph 18.4 mph N/A   Overcast
2:55 PM 73.4 °F 57.2 °F 57% 30.01 in 10.0 mi NNE 13.8 mph 19.6 mph N/A   Mostly Cloudy
3:15 PM 73.4 °F 57.2 °F 57% 30.01 in 10.0 mi North 13.8 mph - N/A   Mostly Cloudy
3:35 PM 73.4 °F 57.2 °F 57% 30.01 in 10.0 mi NNE 16.1 mph 21.9 mph N/A   Mostly Cloudy
3:55 PM 73.4 °F 57.2 °F 57% 30.01 in 10.0 mi North 15.0 mph - N/A   Mostly Cloudy
4:15 PM 73.4 °F 57.2 °F 57% 30.02 in 10.0 mi North 13.8 mph - N/A   Mostly Cloudy
4:35 PM 73.4 °F 57.2 °F 57% 30.02 in 10.0 mi North 12.7 mph 16.1 mph N/A   Mostly Cloudy
4:55 PM 73.4 °F 57.2 °F 57% 30.02 in 10.0 mi NNE 12.7 mph 19.6 mph N/A   Mostly Cloudy
5:15 PM 73.4 °F 57.2 °F 57% 30.02 in 10.0 mi NNE 8.1 mph - N/A   Mostly Cloudy
5:35 PM 73.4 °F 57.2 °F 57% 30.02 in 10.0 mi NNE 12.7 mph - N/A   Scattered Clouds
5:55 PM 73.4 °F 57.2 °F 57% 30.01 in 10.0 mi NNE 12.7 mph - N/A   Scattered Clouds
6:15 PM 71.6 °F 57.2 °F 60% 30.01 in 10.0 mi NNE 11.5 mph - N/A   Partly Cloudy
6:35 PM 71.6 °F 55.4 °F 57% 30.01 in 10.0 mi NNE 12.7 mph - N/A   Clear
6:55 PM 71.6 °F 55.4 °F 57% 30.01 in 10.0 mi NNE 11.5 mph - N/A   Partly Cloudy
7:15 PM 71.6 °F 55.4 °F 57% 30.01 in 10.0 mi NNE 11.5 mph - N/A   Partly Cloudy
7:35 PM 69.8 °F 57.2 °F 64% 30.03 in 10.0 mi NNE 11.5 mph - N/A   Clear
7:55 PM 69.8 °F 55.4 °F 60% 30.04 in 10.0 mi NNE 11.5 mph - N/A   Clear
8:15 PM 68.0 °F 55.4 °F 64% 30.04 in 10.0 mi NNE 11.5 mph - N/A   Clear
8:35 PM 68.0 °F 55.4 °F 64% 30.04 in 10.0 mi NE 9.2 mph - N/A   Clear
8:55 PM 66.2 °F 55.4 °F 68% 30.04 in 10.0 mi NE 11.5 mph - N/A   Clear
9:15 PM 66.2 °F 55.4 °F 68% 30.03 in 10.0 mi NE 12.7 mph - N/A   Clear
9:35 PM 64.4 °F 55.4 °F 73% 30.05 in 10.0 mi NE 11.5 mph - N/A   Clear
9:55 PM 64.4 °F 55.4 °F 73% 30.06 in 10.0 mi NE 13.8 mph - N/A   Clear
10:15 PM 64.4 °F 55.4 °F 73% 30.07 in 10.0 mi NE 13.8 mph 18.4 mph N/A   Clear
10:35 PM 62.6 °F 55.4 °F 77% 30.10 in 10.0 mi NE 9.2 mph - N/A   Clear
10:55 PM 62.6 °F 55.4 °F 77% 30.10 in 10.0 mi NE 8.1 mph - N/A   Clear
11:15 PM 62.6 °F 55.4 °F 77% 30.11 in 10.0 mi NE 8.1 mph - N/A   Clear
11:35 PM 62.6 °F 53.6 °F 72% 30.11 in 10.0 mi NE 8.1 mph - N/A   Clear
11:55 PM 60.8 °F 55.4 °F 82% 30.11 in 10.0 mi NNE 9.2 mph - N/A   Clear